KE4AMH Weather Reports


time (UTC)temp
C
wind
direction
speed
KPH
gust
KPH
rain 1hr
cm
rain 24hr
cm
rain mn
cm
humidity
%
barometer
mb
20260507203153 23 312 3.2 4.8 0.00 2.59 2.59 67 1009.5
20260507202648 23 270 4.8 8.0 0.00 2.59 2.59 68 1009.6
20260507202144 23 234 1.6 6.4 0.00 2.59 2.59 69 1009.3
20260507201639 24 245 0.0 4.8 0.00 2.59 2.59 68 1009.4
20260507201137 24 274 8.0 8.0 0.00 2.59 2.59 66 1009.5
20260507200633 24 270 1.6 8.0 0.00 2.59 2.59 67 1009.6
20260507200129 24 236 3.2 8.0 0.00 2.59 2.59 69 1009.5
20260507195626 25 255 4.8 4.8 0.00 2.59 2.59 69 1009.4
20260507195123 24 228 0.0 6.4 0.00 2.59 2.59 71 1009.6
20260507194620 24 274 4.8 8.0 0.00 2.59 2.59 71 1009.4
20260507194115 25 263 6.4 8.0 0.00 2.59 2.59 71 1009.6
20260507193612 24 270 4.8 8.0 0.00 2.59 2.59 70 1009.8
20260507193109 24 262 6.4 6.4 0.00 2.59 2.59 72 1009.5
20260507192606 24 250 8.0 8.0 0.00 2.59 2.59 73 1009.5
20260507192103 25 282 3.2 6.4 0.00 2.59 2.59 71 1009.6
20260507191558 24 251 3.2 4.8 0.00 2.59 2.59 74 1009.8
20260507191055 23 243 1.6 8.0 0.00 2.59 2.59 78 1009.6
20260507190552 22 233 4.8 6.4 0.00 2.59 2.59 81 1009.7
20260507190051 23 270 0.0 6.4 0.00 2.59 2.59 80 1009.5
20260507185549 23 270 0.0 8.0 0.00 2.59 2.59 81 1009.5
20260507185045 25 106 0.0 4.8 0.00 2.59 2.59 78 1009.6
20260507184544 24 279 3.2 6.4 0.00 2.59 2.59 80 1009.8
20260507184041 24 263 1.6 4.8 0.00 2.59 2.59 80 1009.9
20260507183537 23 258 0.0 11.3 0.00 2.59 2.59 81 1009.9
20260507183034 23 262 4.8 6.4 0.00 2.59 2.59 82 1009.8
20260507182530 23 221 0.0 4.8 0.00 2.59 2.59 84 1010.0
20260507182026 23 253 3.2 4.8 0.00 2.59 2.59 85 1009.8
20260507181524 23 281 0.0 8.0 0.00 2.59 2.59 85 1010.0
20260507181020 23 267 6.4 8.0 0.00 2.59 2.59 83 1010.1
20260507180516 23 270 3.2 4.8 0.00 2.59 2.59 87 1010.1
20260507180013 22 254 3.2 4.8 0.00 2.59 2.59 85 1009.9
20260507175509 22 243 3.2 3.2 0.00 2.59 2.59 86 1010.2
20260507175007 22 98 1.6 11.3 0.00 2.59 2.59 85 1010.0
20260507174504 21 180 3.2 8.0 0.00 2.59 2.59 88 1010.3
20260507174002 22 270 3.2 3.2 0.00 2.59 2.59 88 1010.1
20260507173458 23 239 3.2 4.8 0.00 2.59 2.59 88 1010.0
20260507172955 22 320 3.2 4.8 0.00 2.59 2.59 88 1010.0
20260507172451 22 254 0.0 3.2 0.00 2.59 2.59 90 1010.3
20260507171948 21 276 0.0 3.2 0.00 2.59 2.59 91 1009.8
20260507171444 22 279 0.0 3.2 0.00 2.59 2.59 93 1010.0
20260507170942 21 246 1.6 4.8 0.00 2.59 2.59 94 1010.3
20260507170438 20 230 6.4 8.0 0.00 2.59 2.59 99 1010.0
20260507165934 20 174 6.4 6.4 0.00 2.59 2.59 99 1010.3
20260507165431 20 270 0.0 3.2 0.00 2.59 2.59 99 1010.3
20260507164926 20 216 0.0 4.8 0.00 2.59 2.59 99 1010.0
20260507164424 20 243 3.2 6.4 0.00 2.59 2.59 99 1010.1
20260507163920 19 259 3.2 6.4 0.00 2.59 2.59 99 1010.3
20260507163418 19 270 1.6 3.2 0.00 2.59 2.59 99 1010.3
20260507162915 19 265 3.2 3.2 0.00 2.59 2.59 99 1010.1
20260507162410 19 243 1.6 3.2 0.00 2.59 2.59 99 1010.0
20260507161908 19 251 3.2 3.2 0.00 2.59 2.59 99 1009.9
20260507161403 19 270 0.0 3.2 0.00 2.59 2.59 99 1010.1
20260507160900 18 294 1.6 3.2 0.00 2.59 2.59 99 1010.3
20260507160356 18 270 0.0 1.6 0.00 2.59 2.59 99 1010.4
20260507155852 18 262 0.0 1.6 0.05 2.59 2.59 99 1010.8
20260507155348 18 270 0.0 1.6 0.05 2.59 2.59 99 1010.6
20260507154845 18 99 0.0 1.6 0.00 2.57 2.57 99 1010.5
20260507154345 18 270 0.0 1.6 0.00 2.57 2.57 99 1011.2
20260507154343 18 270 0.0 1.6 0.00 2.57 2.57 99 1011.2
20260507153839 18 285 0.0 1.6 0.00 2.57 2.57 99 1011.2
20260507153537 18 286 0.0 1.6 0.00 2.57 2.57 99 1011.2
20260507153336 18 286 0.0 1.6 0.00 2.57 2.57 99 1011.2
20260507152833 18 254 3.2 3.2 0.00 2.57 2.57 99 1010.8
20260507152329 18 276 0.0 3.2 0.00 2.57 2.57 99 1010.6
20260507152014 18 240 0.0 3.2 0.00 2.57 2.57 99 1010.7
20260507151825 18 240 0.0 3.2 0.00 2.57 2.57 99 1010.7
20260507151321 18 294 0.0 3.2 0.00 2.57 2.57 99 1010.8
20260507150818 18 263 0.0 1.6 0.00 2.57 2.57 99 1010.7
20260507150315 18 270 0.0 1.6 0.00 2.57 2.57 99 1010.5
20260507145811 18 270 0.0 3.2 0.00 2.57 2.57 99 1010.9
20260507145308 18 291 1.6 3.2 0.00 2.57 2.57 99 1010.8
20260507144805 18 294 1.6 3.2 0.00 2.57 2.57 99 1010.9
20260507144302 17 270 0.0 1.6 0.13 2.57 2.57 99 1011.0
20260507143758 17 311 3.2 3.2 0.13 2.57 2.57 99 1011.0
20260507143256 17 270 0.0 1.6 0.00 2.54 2.54 99 1011.4
20260507142752 17 255 1.6 1.6 0.00 2.54 2.54 99 1011.1
20260507142248 17 270 0.0 1.6 0.00 2.54 2.54 99 1010.8
20260507141745 17 270 0.0 1.6 0.00 2.54 2.54 99 1010.6
20260507141242 17 172 0.0 3.2 0.00 2.54 2.54 99 1010.7
20260507140738 17 190 3.2 3.2 0.00 2.54 2.54 99 1010.3
20260507140236 17 270 0.0 0.0 0.00 2.54 2.54 99 1010.3
20260507135733 17 254 1.6 1.6 0.00 2.54 2.54 99 1010.1
20260507135230 17 172 0.0 0.0 0.00 2.54 2.54 99 1010.1
20260507134726 17 215 0.0 3.2 0.00 2.54 2.54 99 1010.6
20260507134222 17 294 0.0 3.2 0.00 2.54 2.54 99 1010.5
20260507133718 17 191 3.2 3.2 0.00 2.54 2.54 99 1010.6
20260507133215 17 285 0.0 3.2 0.00 2.54 2.54 99 1010.4
20260507132713 17 289 0.0 3.2 0.05 2.54 2.54 99 1010.3
20260507132209 17 262 0.0 0.0 0.05 2.54 2.54 99 1010.3
20260507131706 17 270 0.0 0.0 0.18 2.54 2.54 99 1010.6
20260507131204 17 99 0.0 0.0 0.23 2.54 2.54 99 1010.1
20260507130700 17 99 0.0 0.0 0.30 2.49 2.49 99 1011.0
20260507130158 17 99 0.0 0.0 0.36 2.49 2.49 99 1011.1
20260507125656 17 254 0.0 0.0 0.30 2.44 2.44 99 1011.3
20260507125154 17 254 0.0 1.6 0.13 2.41 2.41 99 1011.6
20260507124650 17 270 1.6 3.2 0.05 2.39 2.39 99 1011.2
20260507124148 17 331 0.0 3.2 0.00 2.39 2.39 99 1010.8
20260507123646 17 270 1.6 1.6 0.13 2.39 2.39 99 1010.8
20260507123142 17 90 0.0 3.2 0.36 2.39 2.39 99 1010.6
20260507122638 17 286 0.0 1.6 0.30 2.36 2.36 99 1010.8
20260507122134 17 342 0.0 3.2 0.18 2.34 2.34 99 1010.6
20260507121630 17 279 0.0 1.6 0.13 2.31 2.31 99 1010.5
20260507121126 17 0 0.0 0.0 0.05 2.31 2.31 99 1010.2
20260507120622 17 352 0.0 0.0 0.05 2.31 2.31 99 1010.0
20260507120119 17 345 1.6 1.6 0.05 2.29 2.29 99 1010.0
20260507115615 17 0 0.0 1.6 0.05 2.29 2.29 99 1009.7
20260507115111 17 346 0.0 1.6 0.18 2.29 2.29 99 1009.7
20260507114607 17 172 0.0 0.0 0.36 2.29 2.29 99 1010.1
20260507114105 17 180 0.0 1.6 0.30 2.26 2.26 99 1010.2
20260507113601 17 81 0.0 0.0 0.48 2.21 2.21 99 1010.8
20260507113059 17 105 0.0 1.6 0.79 2.18 2.18 99 1010.3
20260507112557 17 18 0.0 1.6 1.32 2.11 2.11 99 1011.3
20260507112053 17 236 0.0 3.2 2.64 2.03 2.03 99 1011.3
20260507111550 17 72 3.2 6.4 2.34 1.83 1.83 99 1011.0
20260507111047 17 306 0.0 3.2 1.32 1.60 1.60 99 1011.0
20260507110543 17 5 3.2 3.2 0.84 1.45 1.45 99 1010.0
20260507110040 17 5 0.0 4.8 0.48 1.37 1.37 99 1010.0
20260507105537 17 325 0.0 1.6 0.13 1.32 1.32 99 1009.9
20260507105032 17 325 0.0 1.6 0.05 1.30 1.30 99 1009.9
20260507104530 17 331 0.0 1.6 0.05 1.30 1.30 99 1009.8
20260507104026 17 286 0.0 0.0 0.05 1.27 1.27 99 1009.9
20260507103523 17 286 0.0 1.6 0.05 1.27 1.27 99 1009.9
20260507103019 17 0 0.0 1.6 0.05 1.27 1.27 99 1009.5
20260507102516 17 279 0.0 0.0 0.05 1.27 1.27 99 1010.0
20260507102012 17 279 0.0 0.0 0.00 1.27 1.27 99 1010.1
20260507101508 17 279 0.0 0.0 0.00 1.27 1.27 99 1010.3
20260507101004 17 345 0.0 0.0 0.00 1.27 1.27 99 1010.4
20260507100502 17 345 0.0 0.0 0.00 1.27 1.27 99 1010.5
20260507100000 17 345 0.0 0.0 0.00 1.27 1.27 99 1010.3
20260507095457 17 345 0.0 0.0 0.00 1.27 1.27 99 1010.4
20260507094954 17 352 0.0 0.0 0.00 1.27 1.27 99 1010.2
20260507094450 17 270 0.0 0.0 0.00 1.27 1.27 99 1010.4
20260507093947 17 90 0.0 3.2 0.00 1.27 1.27 99 1010.5
20260507093445 17 254 0.0 1.6 0.00 1.27 1.27 99 1010.4
20260507092943 17 187 0.0 0.0 0.00 1.27 1.27 99 1010.4
20260507092439 17 187 0.0 1.6 0.00 1.27 1.27 99 1010.6
20260507091936 17 206 0.0 0.0 0.00 1.27 1.27 99 1010.5
20260507091432 17 279 0.0 0.0 0.00 1.27 1.27 99 1010.6
20260507090928 17 279 0.0 0.0 0.00 1.27 1.27 99 1010.5
20260507090425 17 279 0.0 0.0 0.00 1.27 1.27 99 1010.5
20260507085921 17 194 0.0 0.0 0.00 1.27 1.27 99 1010.6
20260507085418 17 194 0.0 0.0 0.05 1.27 1.27 99 1010.7
20260507084915 17 194 0.0 1.6 0.05 1.27 1.27 99 1010.6
20260507084412 17 15 0.0 0.0 0.00 1.24 1.24 99 1010.8
20260507083909 17 15 0.0 0.0 0.00 1.24 1.24 99 1011.0
20260507083405 17 15 0.0 0.0 0.05 1.24 1.24 99 1010.6
20260507082902 17 15 0.0 0.0 0.05 1.24 1.24 99 1010.6
20260507082357 17 15 0.0 0.0 0.00 1.24 1.24 99 1010.9
20260507081855 17 15 0.0 0.0 0.00 1.24 1.24 99 1011.0
20260507081351 17 15 0.0 0.0 0.05 1.24 1.24 99 1010.9
20260507080848 17 15 0.0 0.0 0.00 1.22 1.22 99 1011.2
20260507080344 17 15 0.0 0.0 0.00 1.22 1.22 99 1010.8
20260507075839 17 8 0.0 0.0 0.05 1.22 1.22 99 1011.1
20260507075335 17 8 0.0 0.0 0.05 1.22 1.22 99 1011.2
20260507074832 17 8 0.0 3.2 0.05 1.22 1.22 99 1011.5
20260507074330 17 0 0.0 3.2 0.13 1.22 1.22 99 1011.6
20260507073827 17 270 0.0 0.0 0.23 1.22 1.22 99 1011.6
20260507073324 17 270 0.0 0.0 0.23 1.19 1.19 99 1011.4
20260507072821 17 270 0.0 1.6 0.43 1.17 1.17 99 1011.6
20260507072318 17 180 0.0 0.0 0.36 1.14 1.14 99 1011.4
20260507071815 17 180 0.0 0.0 0.30 1.09 1.09 99 1011.7
20260507071312 17 180 0.0 0.0 0.43 1.07 1.07 99 1011.2
20260507070809 17 180 0.0 1.6 0.23 1.04 1.04 99 1011.5
20260507070306 17 15 0.0 0.0 0.00 1.02 1.02 99 1011.6
20260507065802 17 15 0.0 0.0 0.05 1.02 1.02 99 1011.7
20260507065259 17 0 0.0 0.0 0.18 1.02 1.02 99 1012.0
20260507064756 17 286 0.0 0.0 0.23 0.99 0.99 99 1011.9
20260507064255 17 286 0.0 0.0 0.23 0.99 0.99 99 1012.3
20260507063753 17 157 0.0 3.2 0.36 0.97 0.97 99 1011.5
20260507063249 17 180 0.0 0.0 0.36 0.94 0.94 99 1011.8
20260507062746 17 0 0.0 0.0 0.18 0.89 0.89 99 1012.0
20260507062243 17 82 0.0 0.0 0.18 0.89 0.89 99 1012.3
20260507061741 17 82 0.0 0.0 0.30 0.86 0.86 99 1012.3
20260507061239 17 82 0.0 0.0 0.61 0.86 0.86 99 1012.5
20260507060737 17 8 0.0 3.2 0.53 0.81 0.81 99 1012.6
20260507060233 17 0 0.0 0.0 0.30 0.74 0.74 99 1013.1
20260507055729 17 0 0.0 0.0 0.13 0.71 0.71 99 1013.1
20260507055225 17 0 0.0 0.0 0.05 0.71 0.71 99 1012.8
20260507054721 17 0 0.0 0.0 0.23 0.71 0.71 99 1012.6
20260507054218 17 0 0.0 1.6 0.43 0.69 0.69 99 1012.7
20260507053716 17 0 0.0 1.6 0.53 0.66 0.66 99 1013.0
20260507053213 17 187 0.0 3.2 0.48 0.61 0.61 99 1013.5
20260507052712 17 83 0.0 0.0 0.43 0.56 0.56 99 1013.4
20260507052208 17 352 0.0 0.0 0.48 0.51 0.51 99 1013.6
20260507051706 17 180 0.0 0.0 0.61 0.48 0.48 99 1013.1
20260507051202 17 180 1.6 3.2 1.07 0.43 0.43 99 1013.6
20260507050659 17 352 0.0 0.0 0.84 0.38 0.38 99 1013.6
20260507050156 17 209 0.0 3.2 0.43 0.25 0.25 99 1013.7
20260507045653 17 6 0.0 4.8 0.61 0.23 0.23 99 1013.0
20260507045149 17 0 1.6 1.6 0.30 0.18 0.18 99 1013.4
20260507044646 17 286 0.0 1.6 0.05 0.13 0.13 99 1013.0
20260507044143 17 345 0.0 0.0 0.05 0.13 0.13 99 1012.8
20260507043639 17 90 0.0 0.0 0.00 0.13 0.13 99 1012.7
20260507043136 17 90 0.0 3.2 0.05 0.13 0.13 99 1012.6
20260507042633 17 0 1.6 3.2 0.23 0.13 0.13 99 1012.6
20260507042128 17 0 0.0 1.6 0.30 0.10 0.10 99 1012.9
20260507041625 17 209 0.0 1.6 0.30 0.08 0.08 99 1013.0
20260507041121 17 345 1.6 1.6 0.30 0.05 0.05 99 1013.3
20260507040619 17 345 0.0 0.0 0.30 0.03 0.03 99 1013.0
20260507040115 17 345 0.0 0.0 0.30 0.00 0.00 99 1012.9
20260507035611 17 334 0.0 1.6 0.18 1.75 1.75 99 1013.0
20260507035108 17 257 0.0 3.2 0.13 1.73 1.73 99 1013.2
20260507034604 17 166 0.0 6.4 0.18 1.70 1.70 99 1012.8
20260507034102 17 164 0.0 3.2 0.18 1.70 1.70 99 1013.3
20260507033600 17 270 0.0 3.2 0.05 1.68 1.68 99 1013.7
20260507033057 17 63 0.0 3.2 0.43 1.68 1.68 99 1012.5
20260507032554 17 186 0.0 3.2 0.97 1.68 1.68 99 1013.6
20260507032050 18 279 0.0 3.2 0.61 1.60 1.60 99 1013.7
20260507031547 17 246 0.0 3.2 0.13 1.50 1.50 99 1012.7
20260507031044 17 0 0.0 3.2 0.05 1.50 1.50 99 1012.3
20260507030540 17 277 0.0 3.2 0.00 1.50 1.50 99 1012.5
20260507030038 18 270 0.0 4.8 0.00 1.50 1.50 99 1012.8
20260507025535 18 106 0.0 3.2 0.00 1.50 1.50 99 1012.9
20260507025032 18 270 1.6 1.6 0.00 1.50 1.50 99 1013.4
20260507024530 18 279 0.0 0.0 0.13 1.50 1.50 99 1013.0
20260507024027 18 261 0.0 1.6 0.23 1.50 1.50 99 1013.2
20260507023522 18 114 0.0 3.2 0.23 1.45 1.45 99 1013.0
20260507023020 18 300 0.0 1.6 0.53 1.45 1.45 99 1013.1
20260507022517 18 114 0.0 3.2 0.48 1.42 1.42 99 1012.7
20260507022012 18 315 0.0 0.0 0.43 1.35 1.35 99 1013.5
20260507021508 18 306 1.6 3.2 0.79 1.32 1.32 99 1013.1
20260507021005 18 82 1.6 1.6 0.71 1.27 1.27 99 1013.6
20260507020502 18 270 0.0 0.0 0.36 1.19 1.19 99 1013.8
20260507015959 18 185 0.0 1.6 0.36 1.14 1.14 99 1013.7
20260507015458 18 270 0.0 0.0 0.30 1.14 1.14 99 1013.8
20260507014955 18 300 0.0 0.0 0.18 1.09 1.09 99 1013.5
20260507014451 18 270 0.0 0.0 0.30 1.07 1.07 99 1013.3
20260507013947 18 8 0.0 1.6 0.43 1.07 1.07 99 1013.1
20260507013444 18 340 0.0 0.0 0.43 1.02 1.02 99 1013.9
20260507012941 18 340 0.0 1.6 0.36 0.99 0.99 99 1014.0
20260507012438 18 8 0.0 3.2 0.23 0.94 0.94 99 1013.5
20260507011934 18 0 0.0 4.8 0.23 0.94 0.94 99 1014.0
20260507011431 18 331 0.0 3.2 0.18 0.91 0.91 99 1013.8
20260507010926 18 28 3.2 4.8 0.00 0.89 0.89 99 1013.7
20260507010421 18 66 0.0 1.6 0.30 0.89 0.89 99 1013.9
20260507005918 18 246 1.6 3.2 0.53 0.89 0.89 99 1013.9
20260507005415 18 0 0.0 3.2 0.48 0.84 0.84 99 1013.8
20260507004912 18 261 0.0 3.2 1.14 0.79 0.79 99 1013.9
20260507004409 18 97 0.0 4.8 2.16 0.74 0.74 98 1014.1
20260507003906 18 283 1.6 1.6 1.93 0.56 0.56 98 1014.3
20260507003401 19 278 0.0 3.2 0.89 0.36 0.36 97 1014.6
20260507002857 19 270 0.0 3.2 0.71 0.25 0.25 96 1013.7
20260507002353 20 270 1.6 1.6 1.14 0.18 0.18 94 1013.0
20260507001850 20 294 0.0 3.2 0.71 0.13 0.13 89 1011.8
20260507001347 21 264 3.2 4.8 0.00 0.00 0.00 81 1011.1
20260507000843 21 0 1.6 4.8 0.00 0.00 0.00 81 1011.0
20260507000339 21 348 4.8 11.3 0.00 0.00 0.00 81 1010.9
20260506235836 21 78 3.2 6.4 0.00 0.00 0.00 81 1011.0
20260506235333 22 29 1.6 4.8 0.00 0.00 0.00 80 1011.5
20260506234828 22 4 3.2 4.8 0.00 0.00 0.00 80 1011.4
20260506234327 22 339 3.2 3.2 0.00 0.00 0.00 80 1012.0
20260506233824 22 164 4.8 8.0 0.00 0.00 0.00 80 1011.7
20260506233320 23 90 3.2 4.8 0.00 0.00 0.00 80 1011.7
20260506232817 23 26 0.0 9.7 0.00 0.00 0.00 79 1011.9
20260506232312 24 318 4.8 4.8 0.00 0.00 0.00 76 1012.1
20260506231809 25 19 3.2 4.8 0.00 0.00 0.00 71 1012.0
20260506231307 25 320 3.2 3.2 0.00 0.00 0.00 68 1011.8
20260506230804 25 286 1.6 1.6 0.00 0.00 0.00 68 1012.0
20260506230301 26 270 0.0 1.6 0.00 0.00 0.00 67 1011.9
20260506225757 26 294 3.2 3.2 0.00 0.00 0.00 66 1011.9
20260506225254 26 279 1.6 3.2 0.00 0.00 0.00 66 1011.9
20260506224751 26 326 3.2 4.8 0.00 0.00 0.00 66 1011.9
20260506224248 26 263 1.6 6.4 0.00 0.00 0.00 65 1011.7
20260506223744 26 286 3.2 6.4 0.00 0.00 0.00 65 1011.6
20260506223240 26 251 1.6 4.8 0.00 0.00 0.00 64 1011.5
20260506222737 26 248 3.2 3.2 0.00 0.00 0.00 65 1011.4
20260506222233 26 270 1.6 9.7 0.00 0.00 0.00 64 1011.3
20260506221731 26 157 4.8 4.8 0.00 0.00 0.00 64 1011.2
20260506221229 26 286 1.6 3.2 0.00 0.00 0.00 65 1011.1
20260506220726 26 257 0.0 3.2 0.00 0.00 0.00 65 1011.0
20260506220220 26 285 3.2 4.8 0.00 0.00 0.00 66 1011.0
20260506215717 26 270 1.6 3.2 0.00 0.00 0.00 66 1011.0
20260506215213 27 182 4.8 4.8 0.00 0.00 0.00 67 1011.1
20260506214709 26 278 1.6 3.2 0.00 0.00 0.00 68 1011.3
20260506214207 27 151 3.2 3.2 0.00 0.00 0.00 66 1011.5
20260506213705 26 270 3.2 3.2 0.00 0.00 0.00 67 1011.7
20260506213202 26 270 0.0 1.6 0.00 0.00 0.00 66 1011.4
20260506212659 27 148 3.2 4.8 0.00 0.00 0.00 64 1011.4
20260506212154 27 232 3.2 6.4 0.00 0.00 0.00 65 1011.8
20260506211650 27 195 1.6 1.6 0.00 0.00 0.00 64 1011.7
20260506211147 27 282 0.0 4.8 0.00 0.00 0.00 66 1011.9
20260506210644 26 180 3.2 4.8 0.00 0.00 0.00 64 1012.1
20260506210140 27 221 3.2 3.2 0.00 0.00 0.00 65 1012.1
20260506205638 27 172 0.0 4.8 0.00 0.00 0.00 65 1012.4
20260506205132 26 270 3.2 4.8 0.00 0.00 0.00 66 1012.7
20260506204631 26 262 0.0 1.6 0.00 0.00 0.00 68 1012.5
20260506204127 26 294 0.0 1.6 0.00 0.00 0.00 68 1012.7
20260506203626 26 170 0.0 3.2 0.00 0.00 0.00 68 1012.6